GW6707 Weather Reports


Display with metric or nautical units.
time (UTC)temp
F
wind
direction
speed
MPH
gust
MPH
rain 1hr
in
rain 24hr
in
rain mn
in
humidity
%
barometer
mb
20260507223027 56 323 0.0 2.0 0.00 0.51 0.00 69 1016.9
20260507221515 57 323 0.0 2.0 0.00 0.51 0.00 66 1016.9
20260507220022 57 323 0.0 2.0 0.00 0.52 0.00 64 1016.7
20260507214523 58 323 0.0 2.0 0.00 0.52 0.52 62 1016.6
20260507213029 58 323 1.0 2.0 0.00 0.52 0.52 62 1016.5
20260507211530 58 315 0.0 0.0 0.00 0.52 0.52 61 1016.6
20260507210016 59 315 0.0 2.0 0.00 0.52 0.52 60 1016.5
20260507204521 59 315 0.0 2.0 0.00 0.52 0.52 59 1016.4
20260507203026 59 323 0.0 3.0 0.00 0.52 0.52 58 1016.5
20260507201530 58 328 0.0 3.0 0.00 0.52 0.52 57 1016.1
20260507200043 59 323 1.0 3.0 0.00 0.52 0.52 57 1016.0
20260507194516 59 315 1.0 4.0 0.00 0.52 0.52 56 1015.7
20260507193023 59 306 2.0 4.0 0.00 0.52 0.52 56 1015.5
20260507191529 59 290 2.0 5.0 0.00 0.52 0.52 59 1015.2
20260507190032 59 310 3.0 5.0 0.00 0.52 0.52 59 1015.1
20260507184528 59 296 2.0 5.0 0.00 0.52 0.52 61 1015.0
20260507183032 59 313 1.0 4.0 0.00 0.52 0.52 62 1014.9
20260507181524 60 338 3.0 4.0 0.00 0.56 0.52 61 1014.7
20260507180037 61 290 1.0 3.0 0.00 0.57 0.52 59 1014.5
20260507174534 63 308 2.0 3.0 0.00 0.57 0.52 55 1014.4
20260507173031 65 298 2.0 4.0 0.00 0.57 0.52 52 1014.3
20260507171521 66 315 1.0 4.0 0.00 0.57 0.52 51 1014.2
20260507170027 65 168 0.0 2.0 0.00 0.58 0.52 52 1014.2
20260507164528 64 122 1.0 2.0 0.00 0.58 0.52 55 1014.3
20260507163031 64 153 2.0 3.0 0.00 0.58 0.52 55 1014.2
20260507161534 64 131 1.0 6.0 0.00 0.58 0.52 55 1014.2
20260507160034 64 226 0.0 3.0 0.00 0.58 0.52 57 1014.2
20260507154533 64 304 1.0 2.0 0.00 0.58 0.52 56 1014.2
20260507153013 65 125 2.0 5.0 0.00 0.58 0.52 56 1014.1
20260507151535 65 124 2.0 4.0 0.00 0.58 0.52 54 1014.1
20260507150024 64 163 1.0 6.0 0.00 0.58 0.52 52 1014.2
20260507144530 65 138 2.0 7.0 0.00 0.58 0.52 50 1014.3
20260507143030 65 164 1.0 7.0 0.00 0.58 0.52 53 1014.4
20260507141518 65 175 2.0 7.0 0.00 0.58 0.52 52 1014.5
20260507140022 64 360 3.0 8.0 0.00 0.58 0.52 55 1014.5
20260507134536 64 158 1.0 5.0 0.00 0.58 0.52 53 1014.6
20260507133027 64 331 2.0 7.0 0.00 0.58 0.52 53 1014.7
20260507131524 64 184 2.0 6.0 0.00 0.58 0.52 56 1014.8
20260507130020 63 297 3.0 7.0 0.00 0.58 0.52 55 1014.9
20260507124524 63 306 2.0 7.0 0.00 0.60 0.52 59 1014.9
20260507123025 63 16 2.0 6.0 0.00 1.00 0.52 63 1014.9
20260507121511 62 163 2.0 7.0 0.00 1.29 0.52 62 1014.9
20260507120020 61 308 1.0 8.0 0.00 1.29 0.52 64 1015.0
20260507114530 60 339 2.0 7.0 0.00 1.29 0.52 62 1015.1
20260507113026 60 283 1.0 8.0 0.00 1.29 0.52 66 1015.2
20260507111528 59 36 1.0 7.0 0.00 1.29 0.52 66 1015.3
20260507110016 60 173 1.0 5.0 0.00 1.32 0.52 67 1015.4
20260507104526 59 292 1.0 4.0 0.00 1.34 0.52 71 1015.4
20260507103029 59 300 1.0 4.0 0.00 1.34 0.52 68 1015.5
20260507101531 58 310 3.0 5.0 0.00 1.35 0.52 69 1015.7
20260507100035 58 46 1.0 4.0 0.00 1.35 0.52 72 1015.7
20260507094522 56 323 2.0 5.0 0.00 1.35 0.52 76 1015.8
20260507093026 55 311 2.0 4.0 0.00 1.35 0.52 80 1015.7
20260507091527 55 327 1.0 5.0 0.00 1.35 0.52 82 1015.6
20260507090037 56 302 3.0 5.0 0.00 1.35 0.52 79 1015.5
20260507084534 57 113 0.0 5.0 0.00 1.36 0.52 79 1015.4
20260507083024 58 133 3.0 6.0 0.00 1.37 0.52 76 1015.3
20260507081525 57 175 2.0 3.0 0.00 1.37 0.52 77 1015.2
20260507080030 56 159 1.0 2.0 0.00 1.37 0.52 81 1015.1
20260507074540 56 165 1.0 3.0 0.00 1.37 0.52 82 1015.0
20260507073021 54 146 0.0 2.0 0.00 1.37 0.52 89 1015.0
20260507071503 51 200 0.0 2.0 0.00 1.37 0.52 92 1015.0
20260507070012 50 209 0.0 2.0 0.00 1.37 0.52 92 1014.9
20260507064535 50 313 0.0 2.0 0.00 1.37 0.52 91 1014.7
20260507063016 50 313 0.0 2.0 0.00 1.37 0.52 91 1014.6
20260507061530 50 313 0.0 2.0 0.00 1.38 0.52 90 1014.5
20260507060004 50 324 0.0 2.0 0.00 1.38 0.52 89 1014.5
20260507054516 50 298 0.0 2.0 0.00 1.38 0.52 89 1014.2
20260507053016 49 250 0.0 2.0 0.00 1.38 0.52 87 1014.0
20260507051536 49 232 0.0 2.0 0.00 1.38 0.52 87 1013.9
20260507050026 49 310 0.0 2.0 0.00 1.38 0.52 88 1013.6
20260507044514 48 309 0.0 2.0 0.00 1.39 0.52 92 1013.5
20260507043011 48 303 0.0 2.0 0.00 1.40 0.52 92 1013.4
20260507041516 48 306 0.0 2.0 0.00 1.44 0.52 91 1013.3
20260507040024 48 315 1.0 2.0 0.00 1.48 0.52 90 1013.2
20260507034548 48 250 0.0 2.0 0.00 1.51 0.52 91 1013.2
20260507033008 48 244 0.0 2.0 0.00 1.57 0.52 91 1013.2
20260507031515 48 244 0.0 2.0 0.00 1.67 0.52 91 1013.2
20260507030021 49 227 0.0 2.0 0.02 1.79 0.52 92 1013.1
20260507024544 49 227 0.0 0.0 0.03 1.79 0.52 92 1013.2
20260507023025 49 227 0.0 2.0 0.03 1.79 0.52 91 1013.3
20260507021511 49 316 0.0 2.0 0.05 1.78 0.51 91 1013.3
20260507020017 49 313 0.0 2.0 0.07 1.77 0.50 90 1013.3
20260507014535 49 309 0.0 2.0 0.12 1.77 0.49 90 1013.3
20260507013028 48 275 0.0 2.0 0.21 1.76 0.48 90 1013.1
20260507011539 48 138 0.0 2.0 0.22 1.74 0.46 91 1013.2
20260507010017 48 319 1.0 5.0 0.25 1.70 0.42 90 1013.3
20260507004521 48 244 0.0 2.0 0.26 1.65 0.37 90 1013.2
20260507003024 48 315 0.0 2.0 0.19 1.55 0.27 90 1013.0
20260507001528 49 182 0.0 2.0 0.17 1.52 0.24 89 1013.0
20260507000030 50 312 0.0 3.0 0.14 1.45 0.17 86 1013.2
20260506234518 50 327 1.0 4.0 0.07 1.39 0.10 86 1013.0
20260506233024 49 313 0.0 2.0 0.07 1.37 0.07 88 1012.9
20260506231529 49 310 0.0 1.0 0.06 1.36 0.07 86 1013.2
20260506230029 49 350 1.0 2.0 0.02 1.33 0.02 85 1013.1
20260506224530 49 259 0.0 2.0 0.02 1.35 0.02 85 1013.1